Content
SEND FEEDBACK

Daily
Averages
Monthly
Summary
Canada

INGONISH BEACH, NOVA SCOTIA


Home > North America > Canada > Nova Scotia
Elevation: 16 feet     Latitude: 46 39N     Longitude: 060 24W

WEATHER
 
SELECT A DAY
Number of Records: 129,579;   Date Range: 12/10/00 - 10/1/14
 
SHARE

PRINT THIS DATA

[ ← Previous Day ]
WEATHER ALMANAC - MARCH 25, 2013
[ Next Day → ]
[ °C ]   °F
Weather ElementAverageHighLow
Temperature31.8 °F37.6 °F (11:00 am)26.1 °F (10:00 pm)
Dewpoint25.8 °F28.9 °F (6:00 pm)23 °F (1:00 am)
Humidity78.2 %96 % (9:00 pm)59 % (9:00 am)
Barometer28.36 in29.65 in (7:00 pm) (7:00 pm)
Wind Speed3.8 mph9.2 mph (4:00 pm)
Weather ElementAverage
Wind DirectionS (175.6 °)

Weather ElementTotal
Precipitation---
Heating Degree Days33.2 (Base 65)
Averaged from 25 records on March 25, 2013
WEATHER CONDITIONS BREAKOUT
WIND DIRECTION BREAKOUT
WEATHER BY HOUR - MARCH 25, 2013
[ °C ]   °F
Local TimeTemperatureDewpointHumidityBarometerVisibilityWind DirectionWind SpeedGust SpeedPrecipitationEventsConditions
1:00 AM30.2 °F23.0 °F75 %29.53 inWest (270°)8.1 mph
2:00 AM30.2 °F23.2 °F75 %29.54 inWest (260°)8.1 mph
3:00 AM30.0 °F24.0 °F70 %WSW (250°)5.8 mph
3:00 AM29.8 °F23.9 °F79 %29.53 inWSW (250°)5.8 mph
6:00 AM31.1 °F26.1 °F82 %29.55 inWSW (250°)4.6 mph
7:00 AM30.9 °F26.1 °F82 %29.55 inWSW (240°)3.5 mph
8:00 AM32.0 °F26.1 °F79 %29.56 inNorth (350°)1.2 mph
9:00 AM34.0 °F25.0 °F59 %29.57 inESE (110°)1.2 mph
9:00 AM34.3 °F25.0 °F69 %29.57 inESE (110°)1.2 mph
10:00 AM37.0 °F24.1 °F59 %29.57 inWest (270°)2.3 mph
11:00 AM37.6 °F24.3 °F59 %29.58 inNNE (30°)2.3 mph
12:00 PM34.0 °F27.0 °F75 %29.60 inENE (60°)3.5 mph
1:00 PM34.9 °F26.1 °F70 %29.60 inEast (90°)3.5 mph
2:00 PM36.7 °F24.3 °F61 %29.60 inEast (80°)2.3 mph
3:00 PM35.0 °F26.0 °F60 %29.61 inEast (80°)5.8 mph
3:00 PM35.2 °F26.1 °F69 %29.61 inEast (80°)5.8 mph
4:00 PM31.5 °F28.8 °F90 %East (80°)9.2 mph
5:00 PM31.8 °F28.2 °F87 %29.64 inEast (90°)4.6 mph
6:00 PM31.8 °F28.9 °F89 %29.64 inEast (90°)4.6 mph
7:00 PM31.1 °F28.6 °F90 %29.65 inSSW (200°)1.2 mph
8:00 PM28.8 °F27.5 °F95 %29.65 inSSW (210°)1.2 mph
9:00 PM27.0 °F26.0 °F94 %29.65 inWSW (240°)2.3 mph
9:00 PM26.8 °F25.9 °F96 %29.65 inWSW (240°)2.3 mph
10:00 PM26.1 °F25.2 °F96 %29.64 inSW (230°)2.3 mph
11:00 PM26.2 °F25.0 °F95 %29.62 inSW (230°)3.5 mph
Hourly data recorded from CXIB, located miles away from Ingonish Beach, Nova Scotia







STORIES FROM OUR PARTNERS